TimeEST,TemperatureF,Dew PointF,Humidity,Sea Level PressureIn,VisibilityMPH,Wind Direction,Wind SpeedMPH,Gust SpeedMPH,PrecipitationIn,Events,Conditions,WindDirDegrees,DateUTC
12:53 AM,39.9,35.1,83,30.12,10.0,SW,6.9,-,N/A,,Clear,220,2013-12-17 05:53:00
1:53 AM,41.0,35.1,79,30.13,10.0,SW,8.1,-,N/A,,Clear,230,2013-12-17 06:53:00
2:53 AM,39.9,34.0,79,30.13,10.0,SW,6.9,-,N/A,,Clear,220,2013-12-17 07:53:00
3:53 AM,39.0,33.1,79,30.12,10.0,SW,8.1,-,N/A,,Clear,220,2013-12-17 08:53:00
4:53 AM,37.9,32.0,79,30.13,10.0,SSW,5.8,-,N/A,,Clear,210,2013-12-17 09:53:00
5:53 AM,37.0,32.0,82,30.12,10.0,South,5.8,-,N/A,,Clear,190,2013-12-17 10:53:00
6:53 AM,37.0,32.0,82,30.14,10.0,South,3.5,-,N/A,,Clear,190,2013-12-17 11:53:00
7:53 AM,36.0,32.0,86,30.14,10.0,South,5.8,-,N/A,,Clear,190,2013-12-17 12:53:00
8:53 AM,42.1,35.1,76,30.14,10.0,SSW,5.8,-,N/A,,Clear,200,2013-12-17 13:53:00
9:53 AM,46.9,35.1,63,30.13,10.0,South,5.8,-,N/A,,Clear,190,2013-12-17 14:53:00
10:53 AM,54.0,34.0,47,30.12,10.0,WSW,10.4,-,N/A,,Clear,250,2013-12-17 15:53:00
11:53 AM,57.0,34.0,42,30.08,10.0,SW,9.2,-,N/A,,Clear,220,2013-12-17 16:53:00
12:53 PM,60.1,34.0,38,30.03,10.0,SW,8.1,-,N/A,,Clear,230,2013-12-17 17:53:00
1:53 PM,62.1,35.1,37,30.00,10.0,SSW,11.5,-,N/A,,Clear,210,2013-12-17 18:53:00
2:53 PM,63.0,35.1,35,29.98,10.0,SW,15.0,-,N/A,,Clear,220,2013-12-17 19:53:00
3:53 PM,64.0,34.0,33,29.96,10.0,SSW,16.1,24.2,N/A,,Clear,210,2013-12-17 20:53:00
4:53 PM,60.1,34.0,38,29.95,10.0,SSW,8.1,-,N/A,,Clear,210,2013-12-17 21:53:00
5:53 PM,55.9,35.1,45,29.95,10.0,SSW,9.2,-,N/A,,Clear,200,2013-12-17 22:53:00
6:53 PM,55.9,35.1,45,29.94,10.0,SSW,11.5,-,N/A,,Clear,210,2013-12-17 23:53:00
7:53 PM,54.0,35.1,49,29.94,10.0,SW,11.5,-,N/A,,Clear,220,2013-12-18 00:53:00
8:53 PM,55.9,32.0,40,29.94,10.0,SW,12.7,-,N/A,,Clear,220,2013-12-18 01:53:00
9:53 PM,55.0,32.0,42,29.96,10.0,SW,12.7,-,N/A,,Clear,230,2013-12-18 02:53:00
10:53 PM,52.0,33.1,49,29.99,10.0,WSW,8.1,-,N/A,,Clear,240,2013-12-18 03:53:00
11:53 PM,51.1,33.1,50,30.01,10.0,WNW,5.8,-,N/A,,Clear,290,2013-12-18 04:53:00